GW3084 Weather Reports


Display with metric or nautical units.
time (UTC)temp
F
wind
direction
speed
MPH
gust
MPH
rain 1hr
in
rain 24hr
in
rain mn
in
humidity
%
barometer
mb
20260902130034 68 357 2.0 6.0 0.00 0.14 0.14 91 1014.5
20260902125030 67 350 2.0 6.0 0.00 0.14 0.14 93 1014.5
20260902124027 66 354 2.0 7.0 0.00 0.14 0.14 93 1014.6
20260902123024 66 357 3.0 8.0 0.00 0.14 0.14 93 1014.7
20260902122021 66 353 2.0 7.0 0.00 0.14 0.14 94 1014.7
20260902121017 66 345 2.0 6.0 0.00 0.14 0.14 93 1014.8
20260902120035 66 334 2.0 4.0 0.00 0.14 0.14 90 1014.8
20260902115031 67 4 1.0 4.0 0.00 0.14 0.14 88 1014.6
20260902114027 68 10 2.0 6.0 0.00 0.14 0.14 89 1014.9
20260902113024 69 1 2.0 6.0 0.00 0.14 0.14 87 1015.0
20260902112102 70 354 4.0 14.0 0.00 0.14 0.14 86 1015.2
20260902111018 72 343 6.0 15.0 0.00 0.14 0.14 87 1015.2
20260902110035 72 333 4.0 13.0 0.00 0.14 0.14 92 1015.4
20260902105031 71 317 4.0 21.0 0.00 0.14 0.14 99 1015.6
20260902104028 71 250 0.0 2.0 0.00 0.14 0.14 99 1013.6
20260902040022 80 276 1.0 3.0 0.00 0.00 0.00 87 1013.3
20260902035018 79 254 1.0 3.0 0.00 0.00 0.00 87 1013.1
20260902034035 79 217 1.0 3.0 0.00 0.00 0.00 84 1013.2
20260902033032 81 135 1.0 3.0 0.00 0.00 0.00 81 1012.9
20260902032028 82 203 0.0 1.0 0.00 0.00 0.00 82 1012.5
20260902031025 82 256 1.0 4.0 0.00 0.00 0.00 82 1012.7
20260902030021 82 264 2.0 7.0 0.00 0.00 0.00 82 1013.1
20260902025017 82 272 2.0 6.0 0.00 0.00 0.00 83 1013.1
20260902024034 83 265 2.0 6.0 0.00 0.00 0.00 83 1012.8
20260902023051 83 262 2.0 8.0 0.00 0.00 0.00 83 1012.9
20260902022028 83 265 1.0 7.0 0.00 0.00 0.00 83 1012.9
20260902021024 83 255 1.0 6.0 0.00 0.00 0.00 82 1013.0
20260902020021 83 263 3.0 9.0 0.00 0.00 0.00 82 1013.0
20260902015018 83 267 2.0 7.0 0.00 0.00 0.00 82 1012.9
20260902014035 83 263 2.0 7.0 0.00 0.00 0.00 82 1012.8
20260902013031 83 269 1.0 4.0 0.00 0.00 0.00 82 1012.6
20260902012028 84 244 1.0 6.0 0.00 0.00 0.00 82 1012.6
20260902011024 84 236 2.0 6.0 0.00 0.00 0.00 81 1012.6
20260902010041 84 242 1.0 4.0 0.00 0.00 0.00 80 1012.3
20260902005018 85 258 1.0 6.0 0.00 0.00 0.00 79 1012.1
20260902004035 85 262 1.0 6.0 0.00 0.00 0.00 78 1012.0
20260902003032 85 252 2.0 6.0 0.00 0.00 0.00 77 1012.1
20260902002028 85 219 1.0 4.0 0.00 0.00 0.00 74 1012.1
20260902001025 85 234 1.0 4.0 0.00 0.00 0.00 72 1012.4
20260902000021 86 222 0.0 3.0 0.00 0.00 0.00 68 1012.3
20260901235019 87 229 0.0 6.0 0.00 0.00 0.00 68 1012.3
20260901234035 87 255 1.0 3.0 0.00 0.00 0.00 68 1012.3
20260901233052 88 261 1.0 4.0 0.00 0.00 0.00 67 1012.1
20260901232029 88 260 1.0 7.0 0.00 0.00 0.00 66 1012.0
20260901231026 88 259 3.0 7.0 0.00 0.00 0.00 65 1012.2
20260901230021 87 248 2.0 7.0 0.00 0.00 0.00 68 1012.3
20260901225018 84 237 2.0 9.0 0.00 0.00 0.00 75 1012.4
20260901224035 81 136 2.0 3.0 0.00 0.00 0.00 77 1012.3
20260901223032 84 122 1.0 3.0 0.00 0.00 0.00 75 1012.3
20260901222028 83 128 2.0 6.0 0.00 0.00 0.00 76 1012.3
20260901221025 84 132 3.0 8.0 0.00 0.00 0.00 74 1012.3
20260901220022 83 124 2.0 7.0 0.00 0.00 0.00 76 1012.4
20260901215019 83 124 2.0 4.0 0.00 0.00 0.00 77 1012.4
20260901214035 83 127 2.0 7.0 0.00 0.00 0.00 79 1012.5
20260901213032 82 155 2.0 7.0 0.00 0.00 0.00 80 1012.4
20260901212030 82 144 3.0 8.0 0.00 0.00 0.00 79 1012.5
20260901211026 82 159 3.0 8.0 0.00 0.00 0.00 79 1012.5
20260901210022 81 129 3.0 8.0 0.00 0.00 0.00 80 1012.6
20260901205021 80 137 3.0 7.0 0.00 0.00 0.00 79 1012.7
20260901204016 81 128 3.0 8.0 0.00 0.00 0.00 79 1012.9
20260901203054 81 136 2.0 4.0 0.00 0.00 0.00 79 1012.9
20260901202031 80 141 3.0 9.0 0.00 0.00 0.00 79 1012.8
20260901201026 81 131 3.0 7.0 0.00 0.00 0.00 77 1012.8
20260901200023 83 140 3.0 6.0 0.00 0.00 0.00 75 1012.9
20260901195020 83 153 2.0 4.0 0.00 0.00 0.00 77 1013.0
20260901194037 83 136 3.0 8.0 0.00 0.00 0.00 78 1013.2
20260901193033 83 129 3.0 6.0 0.00 0.00 0.00 77 1013.2
20260901192031 84 154 2.0 6.0 0.00 0.00 0.00 76 1013.3
20260901191027 83 133 2.0 8.0 0.00 0.00 0.00 78 1013.3
20260901190044 83 145 3.0 7.0 0.00 0.00 0.00 77 1013.2
20260901185020 84 152 3.0 7.0 0.00 0.00 0.00 77 1013.3
20260901184017 85 137 2.0 7.0 0.00 0.00 0.00 76 1013.5
20260901183036 85 127 2.0 4.0 0.00 0.00 0.00 76 1013.4
20260901182032 84 140 2.0 6.0 0.00 0.00 0.00 78 1013.5
20260901181028 84 132 3.0 7.0 0.00 0.00 0.00 78 1013.5
20260901180025 84 138 3.0 6.0 0.00 0.00 0.00 77 1013.5
20260901175022 82 129 3.0 6.0 0.00 0.00 0.00 78 1013.6
20260901174018 83 126 3.0 7.0 0.00 0.00 0.00 76 1013.8
20260901173057 84 135 2.0 6.0 0.00 0.00 0.00 77 1014.0
20260901172032 84 111 3.0 4.0 0.00 0.00 0.00 76 1013.9
20260901171029 85 130 2.0 4.0 0.00 0.00 0.00 75 1014.0
20260901170046 84 117 2.0 4.0 0.00 0.00 0.00 76 1014.0
20260901165023 83 107 2.0 7.0 0.00 0.00 0.00 77 1014.0
20260901164102 84 106 2.0 4.0 0.00 0.00 0.00 76 1014.1
20260901163017 83 121 2.0 4.0 0.00 0.00 0.00 77 1014.0
20260901162034 82 112 2.0 4.0 0.00 0.00 0.00 78 1014.2
20260901161030 83 113 2.0 3.0 0.00 0.00 0.00 76 1014.3
20260901160026 84 128 2.0 4.0 0.00 0.00 0.00 75 1014.3
20260901155023 85 115 1.0 4.0 0.00 0.00 0.00 76 1014.2
20260901154020 82 111 2.0 4.0 0.00 0.00 0.00 79 1014.3
20260901153017 81 125 1.0 4.0 0.00 0.00 0.00 80 1014.3
20260901152115 81 110 2.0 3.0 0.00 0.00 0.00 77 1014.3
20260901151030 83 108 2.0 6.0 0.00 0.00 0.00 76 1014.2
20260901150027 84 119 2.0 3.0 0.00 0.00 0.00 75 1014.0
20260901145024 84 119 1.0 2.0 0.00 0.00 0.00 75 1014.0
20260901144020 82 119 1.0 2.0 0.00 0.00 0.00 78 1013.8
20260901143017 82 141 1.0 2.0 0.00 0.00 0.00 75 1013.7
20260901142034 85 114 1.0 3.0 0.00 0.00 0.00 71 1013.7
20260901141031 87 45 1.0 4.0 0.00 0.00 0.00 74 1013.8
20260901140027 86 343 1.0 4.0 0.00 0.00 0.00 75 1013.8
20260901135024 85 344 1.0 4.0 0.00 0.00 0.00 79 1013.9
20260901134021 83 270 1.0 4.0 0.00 0.00 0.00 81 1013.9
20260901133039 82 256 1.0 2.0 0.00 0.00 0.00 83 1013.9
20260901132035 81 267 1.0 3.0 0.00 0.00 0.00 85 1013.9
20260901131032 81 272 1.0 4.0 0.00 0.00 0.00 87 1013.9